NOAA 16 DEB, 41299

Orbit data source: Space-Track

NOAA 16 DEB, 41299 is space debris in SSO originally from a launch on Thu, 21 Sep 2000 UTC launched from the Air Force Western Test Range (AFWTR). Debris objects in space refer to the collection of defunct objects orbiting the Earth. Examples of debris include non-operational satellites, rocket bodies, and fragments generated from explosions, collisions, or faulty payload assembly.

Loading next visibility...
Identifier
41299, 2000-055HB
Orbit
SSO
Country
Flag of USUS
Related business
Manufacturer
Unknown
Mission
Spacecraft
Bus & Motor
Unknown
Mass
Unknown
Launch date (UTC)
2000-09-21 (25 years ago)
Launch vehicle
Unknown
Launch site
Air Force Western Test Range (AFWTR)
Object type
Payload
Rocket body
Debris
Shape & HBR
Unknown shape, 0.1 m
Radar Cross Section
Small (<0.1 m²)

Expand to show TLE details & history
Last TLE update: 1 day ago

TLE from 1 day ago
0 NOAA 16 DEB
1 41299U 00055HB  25286.58490316  .00004163  00000-0  19576-2 0  9998
2 41299  98.7019 335.9000 0047341  92.8687 267.7908 14.19923296504284
Epoch: 2025-10-13T14:02Z
TLE epoch observation values (Epoch: 2025-10-13T14:02:15.633Z)
Latitude
-0.00009°
Longitude
102.9493°
Altitude
830.003 km
Speed
7.437 km/s
True Right ascension
22h 23m 36s
True Declination
0° 00' 00"
Sunlit
Object was in full shadow at epoch
Visualization orbit readout
Latitude
Unknown
Longitude
Unknown
Altitude
Unknown
Speed
Unknown
Apparent Right ascension
Unknown
Apparent Declination
Unknown
Sunlit
N/A
Visualization observer readout
Local Sidereal Time
10:09:27
Azimuth
Unknown
Elevation
Unknown
Doppler factor
Unknown
Orbital elements
Apogee altitude
856.86 km
Perigee altitude
788.681 km
Semi-major axis
7,200.907 km
Eccentricity
0.00473
Inclination
98.7019°
RAAN
335.9°
Arg. of periapsis
92.8687°
True anomaly
267.24885°
Mean anomaly
267.7908°
Eccentric anomaly
267.51981°
Mean motion
3.55191 °/min
Orbital period
101.35 mins
BSTAR
0.0019576
Loading maneuver chart data...
Computing Atmospheric mass density...
Loading historical data...
Loading historical data...
Loading historical data...
Loading historical data...
Loading historical data...
Loading historical data...
Loading historical data...

Documentation

Showing up to 5 results
|